User: anonymous   Login
Location: Mentone
(34.5413°N, 85.5351°W)
Time: 21:27:43
(UTC-05:00)
Language:

Tiros 1 despin weight - Orbit

View from above orbital plane
View from above orbital plane
View from above satellite
View from above satellite

Ground track
Ground track

The orbit data is extracted from the following two-line orbital elements,

1   115U 60002D   17203.42819999 -.00000023 +00000-0 +24519-4 0  9990
2   115 048.1678 334.5960 0035482 253.8300 105.8706 14.83102381055453
Epoch (UTC): 22 July 2017 10:16:36
Eccentricity: 0.0035482
inclination: 48.1678°
perigee height: 595 km
apogee height: 644 km
right ascension of ascending node: 334.5960°
argument of perigee: 253.8300°
revolutions per day: 14.83102381
mean anomaly at epoch: 105.8706°
orbit number at epoch: 5545

The dashed part of the orbit path shows where the satellite is in the earth's shadow,  

DLR